Stündliche Wetter Ceará Mirim

Heute, 25 Oktober, Sonntag

Zeit Temperatur Niederschläge Wind Luftdruck Luftfeuchtigkeit
00:00 +26°C° 0.1 mm 4 m/S 756 mmHg 87%
01:00 +26°C° 0.1 mm 4 m/S 756 mmHg 88%
02:00 +26°C° 0 mm 4 m/S 756 mmHg 88%
03:00 +26°C° 0 mm 4 m/S 755 mmHg 87%
04:00 +26°C° 0 mm 4 m/S 755 mmHg 87%
05:00 +27°C° 0 mm 4 m/S 755 mmHg 84%
06:00 +27°C° 0 mm 4 m/S 756 mmHg 81%
07:00 +28°C° 0 mm 4 m/S 756 mmHg 78%
08:00 +29°C° 0 mm 5 m/S 756 mmHg 70%
09:00 +32°C° 0 mm 5 m/S 757 mmHg 61%
10:00 +34°C° 0 mm 6 m/S 757 mmHg 53%
11:00 +34°C° 0 mm 7 m/S 757 mmHg 53%
12:00 +35°C° 0 mm 7 m/S 756 mmHg 53%
13:00 +35°C° 0 mm 7 m/S 756 mmHg 54%
14:00 +34°C° 0 mm 7 m/S 755 mmHg 56%
15:00 +33°C° 0 mm 7 m/S 755 mmHg 59%
16:00 +33°C° 0 mm 7 m/S 755 mmHg 62%
17:00 +30°C° 0 mm 6 m/S 755 mmHg 67%
18:00 +29°C° 0 mm 5 m/S 755 mmHg 72%
19:00 +28°C° 0 mm 4 m/S 756 mmHg 78%
20:00 +27°C° 0 mm 4 m/S 756 mmHg 80%
21:00 +27°C° 0 mm 4 m/S 757 mmHg 82%
22:00 +27°C° 0 mm 3 m/S 757 mmHg 84%
23:00 +27°C° 0 mm 3 m/S 757 mmHg 85%

Morgen, 26 Oktober, Montag

Zeit Temperatur Niederschläge Wind Luftdruck Luftfeuchtigkeit
00:00 +26°C° 0 mm 3 m/S 757 mmHg 87%
01:00 +26°C° 0 mm 3 m/S 756 mmHg 89%
02:00 +26°C° 0 mm 3 m/S 756 mmHg 89%
03:00 +26°C° 0 mm 3 m/S 756 mmHg 90%
04:00 +26°C° 0 mm 3 m/S 756 mmHg 90%
05:00 +26°C° 0.1 mm 3 m/S 756 mmHg 87%
06:00 +27°C° 0.1 mm 4 m/S 756 mmHg 85%
07:00 +28°C° 0.1 mm 5 m/S 757 mmHg 82%
08:00 +29°C° 0 mm 5 m/S 757 mmHg 75%
09:00 +30°C° 0 mm 5 m/S 757 mmHg 67%
10:00 +33°C° 0 mm 6 m/S 757 mmHg 60%
11:00 +33°C° 0 mm 6 m/S 757 mmHg 57%
12:00 +34°C° 0 mm 6 m/S 756 mmHg 54%
13:00 +35°C° 0 mm 6 m/S 755 mmHg 51%
14:00 +34°C° 0 mm 6 m/S 755 mmHg 54%
15:00 +33°C° 0 mm 6 m/S 755 mmHg 57%
16:00 +33°C° 0 mm 6 m/S 754 mmHg 60%
17:00 +30°C° 0 mm 5 m/S 754 mmHg 67%
18:00 +29°C° 0 mm 4 m/S 755 mmHg 73%
19:00 +27°C° 0 mm 4 m/S 755 mmHg 80%
20:00 +27°C° 0 mm 3 m/S 756 mmHg 80%
21:00 +27°C° 0 mm 3 m/S 756 mmHg 80%
22:00 +27°C° 0 mm 3 m/S 757 mmHg 80%
23:00 +27°C° 0.1 mm 3 m/S 756 mmHg 80%

übermorgen, 27 Oktober, Dienstag

Zeit Temperatur Niederschläge Wind Luftdruck Luftfeuchtigkeit
00:00 +27°C° 0.1 mm 3 m/S 756 mmHg 80%
01:00 +27°C° 0.1 mm 3 m/S 756 mmHg 80%
02:00 +27°C° 0.1 mm 3 m/S 756 mmHg 82%
03:00 +26°C° 0.1 mm 3 m/S 755 mmHg 85%
04:00 +26°C° 0.1 mm 3 m/S 755 mmHg 87%
05:00 +26°C° 0 mm 3 m/S 756 mmHg 85%
06:00 +27°C° 0 mm 3 m/S 756 mmHg 82%
07:00 +27°C° 0 mm 4 m/S 756 mmHg 80%
08:00 +29°C° 0 mm 4 m/S 757 mmHg 71%
09:00 +32°C° 0 mm 5 m/S 757 mmHg 63%
10:00 +33°C° 0 mm 5 m/S 757 mmHg 55%
11:00 +34°C° 0 mm 6 m/S 756 mmHg 53%
12:00 +34°C° 0 mm 6 m/S 756 mmHg 51%
13:00 +35°C° 0 mm 6 m/S 755 mmHg 48%
14:00 +34°C° 0 mm 6 m/S 755 mmHg 51%
15:00 +33°C° 0 mm 6 m/S 754 mmHg 54%
16:00 +32°C° 0 mm 6 m/S 754 mmHg 57%
17:00 +30°C° 0 mm 5 m/S 754 mmHg 63%
18:00 +28°C° 0 mm 5 m/S 755 mmHg 69%
19:00 +27°C° 0 mm 4 m/S 755 mmHg 75%
20:00 +27°C° 0 mm 4 m/S 755 mmHg 77%
21:00 +27°C° 0 mm 4 m/S 756 mmHg 80%
22:00 +26°C° 0 mm 4 m/S 756 mmHg 82%
23:00 +26°C° 0 mm 4 m/S 756 mmHg 83%

28 Oktober, Mittwoch

Zeit Temperatur Niederschläge Wind Luftdruck Luftfeuchtigkeit
00:00 +26°C° 0 mm 4 m/S 755 mmHg 83%
01:00 +26°C° 0 mm 4 m/S 755 mmHg 84%
02:00 +26°C° 0 mm 4 m/S 755 mmHg 84%
03:00 +25°C° 0 mm 4 m/S 755 mmHg 84%
04:00 +25°C° 0 mm 4 m/S 754 mmHg 83%
05:00 +26°C° 0 mm 4 m/S 755 mmHg 81%
06:00 +27°C° 0 mm 4 m/S 755 mmHg 78%
07:00 +27°C° 0 mm 5 m/S 756 mmHg 76%
08:00 +29°C° 0 mm 5 m/S 756 mmHg 70%
09:00 +30°C° 0 mm 6 m/S 756 mmHg 64%
10:00 +32°C° 0 mm 7 m/S 757 mmHg 58%
11:00 +33°C° 0 mm 7 m/S 756 mmHg 55%
12:00 +33°C° 0 mm 7 m/S 756 mmHg 52%
13:00 +34°C° 0 mm 7 m/S 755 mmHg 50%
14:00 +33°C° 0 mm 7 m/S 755 mmHg 53%
15:00 +33°C° 0 mm 7 m/S 754 mmHg 56%
16:00 +32°C° 0 mm 7 m/S 754 mmHg 59%
17:00 +30°C° 0 mm 6 m/S 754 mmHg 64%
18:00 +28°C° 0 mm 5 m/S 755 mmHg 70%
19:00 +27°C° 0 mm 4 m/S 755 mmHg 75%
20:00 +27°C° 0 mm 4 m/S 756 mmHg 76%
21:00 +26°C° 0 mm 4 m/S 756 mmHg 77%
22:00 +26°C° 0 mm 4 m/S 756 mmHg 77%
23:00 +26°C° 0 mm 4 m/S 756 mmHg 76%

29 Oktober, Donnerstag

Zeit Temperatur Niederschläge Wind Luftdruck Luftfeuchtigkeit
00:00 +26°C° 0 mm 4 m/S 756 mmHg 75%
01:00 +26°C° 0 mm 4 m/S 755 mmHg 74%
02:00 +27°C° 0 mm 4 m/S 755 mmHg 73%
03:00 +27°C° 0 mm 4 m/S 755 mmHg 72%
04:00 +27°C° 0 mm 4 m/S 755 mmHg 71%
05:00 +27°C° 0 mm 4 m/S 755 mmHg 71%
06:00 +27°C° 0 mm 4 m/S 756 mmHg 71%
07:00 +28°C° 0 mm 4 m/S 756 mmHg 70%
08:00 +29°C° 0 mm 5 m/S 756 mmHg 64%
09:00 +32°C° 0 mm 5 m/S 757 mmHg 58%
10:00 +33°C° 0 mm 6 m/S 757 mmHg 52%
11:00 +34°C° 0 mm 6 m/S 757 mmHg 51%
12:00 +34°C° 0 mm 7 m/S 756 mmHg 50%
13:00 +34°C° 0 mm 7 m/S 756 mmHg 49%
14:00 +34°C° 0 mm 7 m/S 756 mmHg 51%
15:00 +33°C° 0 mm 6 m/S 755 mmHg 54%
16:00 +33°C° 0 mm 6 m/S 755 mmHg 56%
17:00 +30°C° 0 mm 6 m/S 755 mmHg 62%
18:00 +29°C° 0 mm 5 m/S 756 mmHg 69%
19:00 +27°C° 0 mm 4 m/S 756 mmHg 76%
20:00 +27°C° 0 mm 4 m/S 757 mmHg 77%
21:00 +27°C° 0 mm 4 m/S 757 mmHg 79%
22:00 +26°C° 0 mm 4 m/S 758 mmHg 81%
23:00 +26°C° 0 mm 4 m/S 757 mmHg 82%

30 Oktober, Freitag

Zeit Temperatur Niederschläge Wind Luftdruck Luftfeuchtigkeit
00:00 +26°C° 0 mm 4 m/S 757 mmHg 83%
01:00 +26°C° 0 mm 4 m/S 757 mmHg 84%
02:00 +26°C° 0 mm 4 m/S 756 mmHg 83%
03:00 +26°C° 0 mm 4 m/S 756 mmHg 83%
04:00 +26°C° 0 mm 4 m/S 756 mmHg 82%
05:00 +26°C° 0 mm 4 m/S 756 mmHg 79%
06:00 +27°C° 0 mm 4 m/S 757 mmHg 77%
07:00 +27°C° 0 mm 4 m/S 757 mmHg 75%
08:00 +29°C° 0 mm 5 m/S 757 mmHg 68%
09:00 +32°C° 0 mm 6 m/S 758 mmHg 62%
10:00 +33°C° 0 mm 7 m/S 758 mmHg 55%
11:00 +34°C° 0 mm 7 m/S 757 mmHg 54%
12:00 +34°C° 0 mm 7 m/S 757 mmHg 52%
13:00 +35°C° 0 mm 7 m/S 756 mmHg 51%
14:00 +34°C° 0 mm 7 m/S 756 mmHg 53%
15:00 +34°C° 0 mm 7 m/S 756 mmHg 55%
16:00 +33°C° 0 mm 7 m/S 755 mmHg 58%
17:00 +32°C° 0 mm 6 m/S 755 mmHg 64%
18:00 +29°C° 0 mm 6 m/S 756 mmHg 71%
19:00 +28°C° 0 mm 5 m/S 756 mmHg 77%
20:00 +28°C° 0 mm 5 m/S 757 mmHg 79%
21:00 +27°C° 0 mm 4 m/S 757 mmHg 80%
22:00 +27°C° 0 mm 4 m/S 757 mmHg 82%
23:00 +27°C° 0.1 mm 4 m/S 757 mmHg 82%
Mehr zeigen